sat.trackr.live / text

‹ back to catalog

STARLINK-30964

NORAD 58402 · 2023-180A

PAYLOAD ACTIVE UNKNOWN

§ Identity

Operator
Country
US
Launch date
2023-11-22
Launch site
AFETR
Launch vehicle
Mass (kg)
RCS (m²)

Purposes: comms

External: N2YO · Heavens-Above · Gunter

§ Orbital elements

Epoch: 2026-09-19T16:10:20.529408Z

Period
94.27 min
Inclination
43.0021°
Eccentricity
0.0001435
Mean motion
15.27573916 rev/d
Perigee alt
482.1 km
Apogee alt
484.1 km
Semi-major
6,861.2 km
B*
-5.7414e-6
RAAN
37.0046°
Arg perigee
270.9386°
Mean anomaly
89.1301°
Rev number
15,729

§ Raw data

STARLINK-309641 58402U 23180A   26262.67384872 -.00000420  00000+0 -57414-5 0  99992 58402  43.0021  37.0046 0001435 270.9386  89.1301 15.27573916157291

JSON: /api/v1/satellites/58402 · /tle

For live sub-satellite position, see the globe view (requires WebGL).

§ Visibility from observer

Set your observer location to see the next 7 days of passes ≥ 10°. The values pass through the URL so the page stays shareable.

No JS? Fill the form by hand. The geolocation button needs JavaScript.